Simultaneous Nadir Overpasses (SNOs) Predictions

Prediction of SNOs between GOES-14 and AQUA Satellite Orbit:

Table of predicted SNOs for the next 14.0 days since TLE Epoch: 7/24/2020
Index Date Time (GOES-14) GOES-14 Lat,Lon AQUA Lat,Lon Distance(km) Time Diff (sec)
1 07/25/2020 20:26:50 0.33,-104.53 0.73,-102.55 224.16 80
2 07/26/2020 08:45:26 -0.35,-104.34 0.36,-107.71 383.64 80
3 07/28/2020 08:35:55 -0.35,-104.35 -0.28,-104.76 46.22 80
4 07/30/2020 08:23:44 -0.35,-104.36 -0.93,-101.81 291.08 80
5 07/30/2020 20:42:29 0.38,-104.55 -0.12,-107.01 278.97 80
6 08/01/2020 20:32:57 0.38,-104.56 0.47,-104.05 58.42 80
7 08/03/2020 20:20:46 0.38,-104.58 1.12,-101.09 396.16 80
8 08/04/2020 08:42:02 -0.41,-104.40 -0.04,-106.25 210.01 80
9 08/06/2020 08:27:10 -0.40,-104.42 -0.63,-103.29 128.13 80
10 08/06/2020 20:48:35 0.42,-104.59 -0.41,-108.49 443.34 80
